Regional Weather Roundup
Issued by NWS

Home | Current Version | Previous Version | Text Only | Print | Product List | Glossary Off
Versions: 1 2 3 4 5 6 7 8 9 10 11 12 13 14 15 16 17 18 19 20 21 22 23 24 25 26 27 28 29 30 31 32 33 34 35 36 37 38 39 40 41 42 43 44 45 46 47 48 49 50

860
ASUS43 KMKX 221010
RWRWI

WISCONSIN REGIONAL WEATHER ROUNDUP
NATIONAL WEATHER SERVICE MILWAUKEE/SULLIVAN WI
400 AM CST MON JAN 22 2018

NOTE: "FAIR" INDICATES FEW OR NO CLOUDS BELOW 12,000 FEET WITH NO
SIGNIFICANT WEATHER AND/OR OBSTRUCTIONS TO VISIBILITY.

WIZ001-002-006>008-014>016-023>028-221100-
NORTHWEST WISCONSIN

CITY           SKY/WX    TMP DP  RH WIND       PRES   REMARKS
SUPERIOR ARPT  LGT SNOW  29  28  96 NE14G26   30.04F WCI  18
ASHLAND        LGT SNOW  29  28  96 NE15      30.03F FOG     WCI  18
HAYWARD        CLOUDY    30  25  81 NE20      29.94F WCI  17
SIREN          CLOUDY    31  26  84 NE15      29.94F WCI  20
CUMBERLAND     CLOUDY    32  28  86 NE13G18   29.89S WCI  22
RICE LAKE      CLOUDY    32  30  94 NE13      29.90F WCI  22
CHETEK         NOT AVBL
LADYSMITH      CLOUDY    33  30  88 NE10      29.92S WCI  25
EAU CLAIRE     CLOUDY    35  30  82 NE12G23   29.83F WCI  27
MENOMONIE      CLOUDY    35  31  85 N13       29.84F WCI  26
NEW RICHMOND   CLOUDY    32  28  85 NE13G21   29.86F WCI  23
OSCEOLA        CLOUDY    33  30  88 N8        29.91F WCI  26
$$

WIZ003>005-009-010-017-018-221100-
NORTH CENTRAL WISCONSIN

CITY           SKY/WX    TMP DP  RH WIND       PRES   REMARKS
MANITOWISH WTR MIX PCPN  28  28 100 NE8G17    29.95R WCI  20
ARBOR VITAE    CLOUDY    32  30  94 NE8       29.92F WCI  25
WOODRUFF       CLOUDY    32  30  94 NE8       29.92F WCI  25
RHINELANDER    CLOUDY    32  31  96 E8        29.91F WCI  25
EAGLE RIVER    CLOUDY    31  31 100 NE9       29.93F WCI  23
LAND O LAKES   CLOUDY    30  30 100 NE8       29.96F FOG     WCI  22
PHILLIPS       CLOUDY    31  31 100 NE13      29.90F WCI  21
TOMAHAWK       CLOUDY    32  29  88 NE7       29.90F WCI  26
MEDFORD        CLOUDY    32  29  89 NE16      29.84F WCI  21
MERRILL        CLOUDY    34  31  90 E12       29.88F WCI  25
$$

WIZ029-030-035-036-043>047-221100-
CENTRAL WISCONSIN

CITY           SKY/WX    TMP DP  RH WIND       PRES   REMARKS
WAUSAU         CLOUDY    34  31  88 NE10      29.85F WCI  26
MOSINEE        CLOUDY    32  32 100 NE9G18    29.86F WCI  24
MARSHFIELD     CLOUDY    34  31  88 NE15      29.82F WCI  24
STEVENS POINT  CLOUDY    32  32 100 NE10G16   29.85F FOG     WCI  24
WAUPACA        CLOUDY    36  34  92 NE13G20   29.86F FOG     WCI  27
WAUTOMA        LGT RAIN  34  33  96 NE16G22   29.81F FOG     WCI  24
WISC RAPIDS    CLOUDY    35  31  85 E13G21    29.83F FOG     WCI  26
CAMP DOUGLAS   DRIZZLE   36  36 100 NE8G17    29.77F FOG     WCI  29
$$

WIZ011>013-019>022-031-037>040-048>050-221100-
NORTHEAST WISCONSIN

CITY           SKY/WX    TMP DP  RH WIND       PRES   REMARKS
ANTIGO         CLOUDY    32  31  96 E12       29.89F WCI  23
SHAWANO        CLOUDY    35  33  90 NE14G21   29.90F FOG     WCI  26
OCONTO         CLOUDY    34  32  93 NE12      29.93F WCI  25
STURGEON BAY   CLOUDY    34  33  96 NE9       29.93F FOG     WCI  27
GREEN BAY      CLOUDY    33  31  92 NE25G31   29.88F FOG     WCI  20
MANITOWOC      MIX PCPN  36  35  96 NE9G17    29.86F FOG     WCI  29
APPLETON       CLOUDY    32  32 100 NE15G25   29.83F FOG     WCI  22
CLINTONVILLE   DRIZZLE   34  32  93 NE14G21   29.88F WCI  24
OSHKOSH        RAIN      33  33 100 NE16      29.82F FOG     WCI  23
$$

WIZ032>034-041-042-053>061-221100-
SOUTHWEST WISCONSIN

CITY           SKY/WX    TMP DP  RH WIND       PRES   REMARKS
LA CROSSE      LGT RAIN  39  35  86 NE12G18   29.75F WCI  32
SPARTA         DRIZZLE   34  34  98 NE13G25   29.77F WCI  25
VIROQUA        CLOUDY    36  36 100 NE22G28   29.71F WCI  24
BOSCOBEL       RAIN      37  35  92 VRB7      29.70F FOG     WCI  32
PRAIRIE DU CHI LGT RAIN  38  34  88 NE7       29.67F WCI  32
PLATTEVILLE    CLOUDY    37  37 100 NE23      29.62F WCI  26
$$

WIZ056-057-062-063-064-067-068-221100-
SOUTH CENTRAL WISCONSIN

CITY           SKY/WX    TMP DP  RH WIND       PRES   REMARKS
REEDSBURG      LGT RAIN  34  34 100 NE13G18   29.75F WCI  25
BARABOO/DELLS  DRIZZLE   34  34  99 NE15      29.75F WCI  24
LONE ROCK      LGT RAIN  38  37  97 E8        29.72F FOG     WCI  32
MINERAL POINT  RAIN      37  37 100 NE16G23   29.65F WCI  28
MADISON        HVY RAIN  36  35  96 NE15      29.73F FOG     WCI  27
MIDDLETON      CLOUDY    37  37 100 E10G16    29.72F WCI  30
WATERTOWN      CLOUDY    36  36 100 NE14      29.73F WCI  27
MONROE         LGT RAIN  36  36 100 NE17      29.67F VSB 1   WCI  25
JANESVILLE     LGT RAIN  37  37 100 NE12      29.69F WCI  30
$$

WIZ051-052-058>065-066-070>072-221100-
SOUTHEAST WISCONSIN

CITY           SKY/WX    TMP DP  RH WIND       PRES   REMARKS
MILWAUKEE      DRZL/FOG  37  37 100 NE13      29.76F VSB 1/4 WCI  29
WAUKESHA       CLOUDY    34  34 100 NE10G17   29.76F FOG     WCI  26
MILWAUKEE/TIMM CLOUDY    36  34  93 NE8G17    29.77F FOG     WCI  29
RACINE         MIX PCPN  37  37 100 NE5       29.77F VSB 1/2 WCI  33
BURLINGTON     FOG       37  36  96 NE8       29.73F VSB 1   WCI  30
KENOSHA        FOG       39  37  92 NE9       29.73F VSB 1/2 WCI  33
FOND DU LAC    LGT RAIN  37  34  89 NE12      29.81F FOG     WCI  29
SHEBOYGAN      HVY RAIN  36  36 100 NE17      29.83F FOG     WCI  26
WEST BEND      LGT RAIN  36  36 100 E14G21    29.79F WCI  27
JUNEAU         LGT RAIN  36  35  97 NE10      29.78F WCI  28
$$

LSZ147-162-221100-
LAKE SUPERIOR

STATION/POSITION TIME  TEMP    WIND        PRES    WAVE
                       AIR SEA DIR/SP/G            HT/PER
                 (UTC) (F)     (DEG/KT/KT) (MB)    (FT/S)
DEVILS ISLAND    1000   26      60/ 18/ 21 1019.2F
SAXON HARBOR     0930   31      50/ 20/ 23 1016.3F
$$

LMZ867-665-643>646-221100-
LAKE MICHIGAN

STATION/POSITION TIME  TEMP    WIND        PRES    WAVE
                       AIR SEA DIR/SP/G            HT/PER
                 (UTC) (F)     (DEG/KT/KT) (MB)    (FT/S)
NORTHPORT PIER   0940   33      30/  1/  5 1014.6F
KEWAUNEE LAKESHO 0948   35      30/ 13/ 18 1011.8F
SHEBOYGAN LAKESH 1000   36      30/ 15/ 16 1010.6F
PORT WASHINGTON  1000   37      30/ 13/ 18 1010.2
MILWAUKEE LAKESH 0950   35      30/ 12/ 13   N/A
KENOSHA   LAKESH 1000   35      10/  9/  9 1007.1
$$

TC  - TEMPERATURE IN CELSIUS
VSB - VISIBILITY IN STATUTE MILES
WCI - WIND CHILL INDEX
HX  - HEAT INDEX





USA.gov is the U.S. government's official web portal to all federal, state and local government web resources and services.